Regional Weather Roundup
Issued by NWS

Home | Current Version | Previous Version | Graphics & Text | Print | Product List | Glossary On
Versions: 1 2 3 4 5 6 7 8 9 10 11 12 13 14 15 16 17 18 19 20 21 22 23 24 25 26 27 28 29 30 31 32 33 34 35 36 37 38 39 40 41 42 43 44 45 46 47 48 49 50
000
ASUS43 KFSD 292110
RWRSD

WEATHER ROUNDUP FOR SOUTH DAKOTA
NATIONAL WEATHER SERVICE SIOUX FALLS SD
400 PM CDT SUN MAY 29 2016

NOTE: "FAIR" INDICATES FEW OR NO CLOUDS BELOW 12,000 FEET WITH NO
SIGNIFICANT WEATHER AND/OR OBSTRUCTIONS TO VISIBILITY.


SDZ001>005-009-010-012>017-292200-
NORTHWEST AND NORTH CENTRAL SOUTH DAKOTA

CITY           SKY/WX    TMP DP  RH WIND       PRES   REMARKS
BUFFALO          N/A     78  45  30 SE13G18   29.94F
FAITH            N/A     75  47  36 S10       30.00F
MOBRIDGE       SUNNY     78  49  35 S9G17     29.98F
$$

SDZ012>016-024>037-041>051-057-063-072>074-292200-
SOUTHWEST AND SOUTH CENTRAL SOUTH DAKOTA

CITY           SKY/WX    TMP DP  RH WIND       PRES   REMARKS
RAPID CTY ARPT CLOUDY    69  50  50 SE7       30.03F
PIERRE         SUNNY     77  50  38 CALM      30.01F
CUSTER         PTSUNNY   64  42  44 S6        30.12F
ELLSWORTH AFB  CLOUDY    69  50  51 SE6       30.03F
PHILIP         MOSUNNY   78  52  40 SE10G17   30.01F
PINE RIDGE     MOSUNNY   79  43  27 W12G17    30.02F
WINNER         FAIR      79  55  43 E7        30.03F
$$

SDZ004>011-016>023-039-040-292200-
NORTHEAST SOUTH DAKOTA

CITY           SKY/WX    TMP DP  RH WIND       PRES   REMARKS
ABERDEEN       MOSUNNY   80  46  30 W9        30.00S
WATERTOWN      SUNNY     77  46  33 NW14G20   30.02S
BROOKINGS      SUNNY     75  49  39 NW10      30.03S
SISSETON         N/A     81  42  25 N20G26    29.96F
$$

SDZ017-020-022-023-036>040-048>070-292200-
SOUTHEAST SOUTH DAKOTA

CITY           SKY/WX    TMP DP  RH WIND       PRES   REMARKS
SIOUX FALLS    MOSUNNY   78  50  37 NW9G17    30.03F
HURON          SUNNY     78  51  38 NW6       30.02F
CHAMBERLAIN    SUNNY     78  56  47 SE5       30.04F
MITCHELL       SUNNY     79  49  34 CALM      30.03F
YANKTON        SUNNY     77  55  47 W6        30.03S
$$

ABBREVIATIONS USED IN REMARKS
   TC - TEMPERATURE IN CELSIUS
  WCI - WIND CHILL INDEX
   HX - HEAT INDEX
  VSB - VISIBILITY





USA.gov is the U.S. government's official web portal to all federal, state and local government web resources and services.